W4JCW Weather Reports


time (UTC)temp
C
wind
direction
speed
KPH
gust
KPH
rain 1hr
cm
rain 24hr
cm
rain mn
cm
humidity
%
barometer
mb
20260506135141 20 129 0.0 3.2 0.00 0.00 0.00 75 1014.1
20260506134638 20 57 0.0 3.2 0.00 0.00 0.00 76 1014.0
20260506134133 19 63 0.0 1.6 0.00 0.00 0.00 76 1014.1
20260506133631 19 321 0.0 1.6 0.00 0.00 0.00 76 1014.2
20260506133128 19 89 0.0 1.6 0.00 0.00 0.00 79 1014.1
20260506132625 18 141 1.6 3.2 0.00 0.00 0.00 79 1014.0
20260506132122 18 129 0.0 1.6 0.00 0.00 0.00 79 1014.1
20260506131620 18 171 0.0 3.2 0.00 0.00 0.00 80 1013.8
20260506131116 18 148 0.0 3.2 0.00 0.00 0.00 82 1014.2
20260506130613 18 140 0.0 3.2 0.00 0.00 0.00 82 1014.3
20260506130110 17 102 0.0 3.2 0.00 0.00 0.00 82 1014.3
20260506125608 17 58 0.0 3.2 0.00 0.00 0.00 84 1014.5
20260506125106 17 83 1.6 3.2 0.00 0.00 0.00 85 1014.3
20260506124603 17 54 3.2 3.2 0.00 0.00 0.00 85 1014.2
20260506124101 16 99 1.6 3.2 0.00 0.00 0.00 86 1014.0
20260506123558 16 68 3.2 3.2 0.00 0.00 0.00 87 1013.9
20260506123057 16 98 0.0 1.6 0.00 0.00 0.00 87 1013.8
20260506122553 16 100 0.0 1.6 0.00 0.00 0.00 87 1013.7
20260506122051 16 69 1.6 1.6 0.00 0.00 0.00 88 1013.8
20260506121548 16 105 0.0 3.2 0.00 0.00 0.00 88 1013.6
20260506121044 16 94 3.2 3.2 0.00 0.00 0.00 88 1013.7
20260506120543 16 118 3.2 3.2 0.00 0.00 0.00 88 1013.5
20260506120040 16 80 0.0 3.2 0.00 0.00 0.00 88 1013.7
20260506115538 15 122 3.2 3.2 0.00 0.00 0.00 89 1013.7
20260506115036 15 113 3.2 3.2 0.00 0.00 0.00 89 1013.6
20260506114533 15 104 1.6 4.8 0.00 0.00 0.00 90 1013.7
20260506114031 15 107 0.0 3.2 0.00 0.00 0.00 90 1013.3
20260506113529 15 130 0.0 4.8 0.00 0.00 0.00 90 1013.6
20260506113026 15 43 1.6 3.2 0.00 0.00 0.00 91 1013.2
20260506112522 15 156 0.0 3.2 0.00 0.00 0.00 91 1013.1
20260506112020 15 116 0.0 1.6 0.00 0.00 0.00 92 1013.0
20260506111518 14 105 0.0 3.2 0.00 0.00 0.00 92 1013.1
20260506111015 14 121 1.6 3.2 0.00 0.00 0.00 92 1013.1
20260506110512 14 92 1.6 3.2 0.00 0.00 0.00 92 1013.2
20260506110009 14 129 0.0 3.2 0.00 0.00 0.00 92 1013.1
20260506105505 14 166 1.6 3.2 0.00 0.00 0.00 92 1013.0
20260506105003 14 129 0.0 3.2 0.00 0.00 0.00 92 1012.9
20260506104501 14 114 0.0 3.2 0.00 0.00 0.00 91 1013.0
20260506103959 14 89 0.0 3.2 0.00 0.00 0.00 91 1013.1
20260506103455 14 109 0.0 3.2 0.00 0.00 0.00 91 1012.9
20260506102952 14 142 3.2 3.2 0.00 0.00 0.00 91 1012.8
20260506102450 14 156 1.6 3.2 0.00 0.00 0.00 91 1012.9
20260506101947 14 125 0.0 3.2 0.00 0.00 0.00 91 1012.9
20260506101444 14 136 1.6 3.2 0.00 0.00 0.00 91 1013.1
20260506100941 14 129 0.0 3.2 0.00 0.00 0.00 90 1012.7
20260506100439 14 130 1.6 3.2 0.00 0.00 0.00 90 1012.7
20260506095937 14 124 0.0 3.2 0.00 0.00 0.00 90 1012.8
20260506095435 14 135 3.2 3.2 0.00 0.00 0.00 90 1012.9
20260506094931 14 125 3.2 3.2 0.00 0.00 0.00 89 1013.1
20260506094430 14 54 0.0 1.6 0.00 0.00 0.00 89 1013.1
20260506093927 14 50 0.0 4.8 0.00 0.00 0.00 89 1013.2
20260506093425 14 72 3.2 3.2 0.00 0.00 0.00 89 1013.1
20260506092923 14 101 1.6 3.2 0.00 0.00 0.00 88 1012.9
20260506092420 14 125 0.0 3.2 0.00 0.00 0.00 88 1012.9
20260506091916 15 108 0.0 3.2 0.00 0.00 0.00 88 1013.0
20260506091415 15 130 3.2 3.2 0.00 0.00 0.00 88 1013.1
20260506090911 15 141 0.0 3.2 0.00 0.00 0.00 88 1013.1
20260506090409 15 243 0.0 1.6 0.00 0.00 0.00 87 1013.3
20260506085906 15 122 0.0 3.2 0.00 0.00 0.00 87 1013.3
20260506085402 15 105 1.6 3.2 0.00 0.00 0.00 87 1013.6
20260506084859 15 86 1.6 3.2 0.00 0.00 0.00 86 1013.7
20260506084355 15 93 0.0 3.2 0.00 0.00 0.00 86 1013.5
20260506083852 15 123 1.6 3.2 0.00 0.00 0.00 85 1013.6
20260506083350 15 111 1.6 3.2 0.00 0.00 0.00 85 1013.7
20260506082847 15 104 0.0 1.6 0.00 0.00 0.00 85 1013.7
20260506082344 15 138 3.2 3.2 0.00 0.00 0.00 84 1013.6
20260506081839 15 82 1.6 3.2 0.00 0.00 0.00 84 1014.0
20260506081338 15 107 1.6 3.2 0.00 0.00 0.00 84 1013.9
20260506080835 15 97 3.2 3.2 0.00 0.00 0.00 83 1013.7
20260506080331 15 105 0.0 1.6 0.00 0.00 0.00 83 1013.5
20260506073316 16 95 0.0 3.2 0.00 0.00 0.00 82 1013.7
20260506072812 16 93 1.6 3.2 0.00 0.00 0.00 82 1013.4
20260506072310 16 89 0.0 3.2 0.00 0.00 0.00 82 1013.5
20260506071807 16 66 0.0 3.2 0.00 0.00 0.00 82 1013.7
20260506071305 16 89 0.0 1.6 0.00 0.00 0.00 82 1013.2
20260506070802 16 113 0.0 3.2 0.00 0.00 0.00 82 1013.5
20260506070259 16 122 0.0 1.6 0.00 0.00 0.00 82 1013.3
20260506062236 16 103 1.6 1.6 0.00 0.00 0.00 80 1013.7
20260506061732 16 44 0.0 3.2 0.00 0.00 0.00 80 1013.9
20260506061230 16 103 0.0 3.2 0.00 0.00 0.00 80 1013.9
20260506060728 16 131 1.6 3.2 0.00 0.00 0.00 79 1014.0
20260506060225 16 128 1.6 1.6 0.00 0.00 0.00 79 1014.2
20260506051157 17 152 1.6 3.2 0.00 0.00 0.00 74 1014.3
20260506050655 17 130 0.0 1.6 0.00 0.00 0.00 74 1014.1
20260506050152 17 164 1.6 3.2 0.00 0.00 0.00 73 1014.1
20260506044643 18 218 0.0 3.2 0.00 0.00 0.00 73 1014.1
20260506044139 18 264 3.2 6.4 0.00 0.00 0.00 72 1014.3
20260506043637 18 245 0.0 3.2 0.00 0.00 0.00 72 1014.1
20260506043135 18 155 3.2 3.2 0.00 0.00 0.00 71 1014.3
20260506042633 18 161 0.0 1.6 0.00 0.00 0.00 71 1014.2
20260506042131 18 168 1.6 3.2 0.00 0.00 0.00 71 1014.2
20260506041630 18 308 0.0 3.2 0.00 0.00 0.00 70 1014.4
20260506041126 18 215 1.6 6.4 0.00 0.00 0.00 70 1014.3
20260506040624 18 264 0.0 3.2 0.00 0.00 0.00 70 1014.5
20260506040120 18 206 0.0 3.2 0.00 0.00 0.00 70 1014.3
20260506035617 18 135 0.0 1.6 0.00 0.00 0.00 69 1014.5
20260506035113 18 221 1.6 3.2 0.00 0.00 0.00 69 1014.5
20260506034611 18 239 0.0 4.8 0.00 0.00 0.00 69 1014.5
20260506034108 18 202 3.2 4.8 0.00 0.00 0.00 68 1014.4
20260506033605 18 180 0.0 3.2 0.00 0.00 0.00 68 1014.3
20260506033102 18 161 1.6 4.8 0.00 0.00 0.00 68 1014.1
20260506032559 19 274 1.6 1.6 0.00 0.00 0.00 67 1014.1
20260506032056 19 262 1.6 3.2 0.00 0.00 0.00 67 1013.9
20260506031554 19 259 0.0 1.6 0.00 0.00 0.00 66 1014.1
20260506031050 19 166 0.0 3.2 0.00 0.00 0.00 66 1014.1
20260506030549 19 220 3.2 3.2 0.00 0.00 0.00 65 1014.1
20260506030045 20 235 0.0 3.2 0.00 0.00 0.00 64 1014.1
20260506025542 20 184 1.6 4.8 0.00 0.00 0.00 63 1013.9
20260506025038 20 216 0.0 6.4 0.00 0.00 0.00 63 1014.1
20260506024536 20 205 3.2 3.2 0.00 0.00 0.00 62 1014.4
20260506024032 20 227 0.0 4.8 0.00 0.00 0.00 62 1014.1
20260506023528 20 191 1.6 4.8 0.00 0.00 0.00 62 1014.3
20260506023026 20 322 0.0 3.2 0.00 0.00 0.00 62 1014.5
20260506022523 20 170 1.6 3.2 0.00 0.00 0.00 61 1014.3
20260506022020 20 103 0.0 3.2 0.00 0.00 0.00 61 1014.4
20260506021518 20 180 3.2 3.2 0.00 0.00 0.00 61 1014.4
20260506021015 20 224 0.0 6.4 0.00 0.00 0.00 60 1014.1
20260506020512 20 215 1.6 3.2 0.00 0.00 0.00 60 1014.4
20260506020010 21 220 3.2 3.2 0.00 0.00 0.00 59 1014.1
20260506015507 21 137 3.2 3.2 0.00 0.00 0.00 59 1014.0
20260506015004 21 211 1.6 4.8 0.00 0.00 0.00 59 1013.9
20260506014501 21 224 0.0 4.8 0.00 0.00 0.00 58 1013.8
20260506013957 21 226 0.0 3.2 0.00 0.00 0.00 58 1013.7
20260506013455 21 226 0.0 4.8 0.00 0.00 0.00 58 1013.8
20260506012951 21 264 1.6 3.2 0.00 0.00 0.00 58 1013.5
20260506012448 21 166 1.6 3.2 0.00 0.00 0.00 58 1013.8
20260506011945 21 302 1.6 3.2 0.00 0.00 0.00 57 1013.4
20260506011442 22 219 0.0 3.2 0.00 0.00 0.00 57 1013.4
20260506010939 22 228 3.2 8.0 0.00 0.00 0.00 56 1013.0
20260506010438 22 202 3.2 3.2 0.00 0.00 0.00 56 1013.1
20260506005933 22 227 3.2 4.8 0.00 0.00 0.00 55 1013.0
20260506005432 22 230 3.2 4.8 0.00 0.00 0.00 55 1012.8
20260506004926 22 225 3.2 4.8 0.00 0.00 0.00 55 1012.8
20260506004425 22 218 4.8 4.8 0.00 0.00 0.00 54 1012.7
20260506003920 22 201 3.2 4.8 0.00 0.00 0.00 54 1012.7
20260506003417 23 194 0.0 4.8 0.00 0.00 0.00 53 1012.5
20260506002914 23 238 3.2 8.0 0.00 0.00 0.00 53 1012.6
20260506002410 23 60 0.0 4.8 0.00 0.00 0.00 52 1012.6
20260506001905 23 227 3.2 3.2 0.00 0.00 0.00 52 1012.6
20260506001402 23 216 0.0 4.8 0.00 0.00 0.00 51 1012.5
20260506000900 23 191 1.6 4.8 0.00 0.00 0.00 50 1012.5
20260506000357 23 250 1.6 3.2 0.00 0.00 0.00 49 1012.3
20260505235854 23 269 0.0 1.6 0.00 0.00 0.00 48 1012.4
20260505235351 24 204 0.0 1.6 0.00 0.00 0.00 47 1012.3
20260505234848 24 217 0.0 1.6 0.00 0.00 0.00 46 1012.4
20260505234346 24 180 0.0 4.8 0.00 0.00 0.00 46 1012.3
20260505233842 24 219 0.0 1.6 0.00 0.00 0.00 45 1012.6
20260505233341 25 192 1.6 3.2 0.00 0.00 0.00 45 1012.3
20260505232838 25 225 3.2 3.2 0.00 0.00 0.00 44 1012.4
20260505232336 25 187 0.0 3.2 0.00 0.00 0.00 44 1012.6
20260505231832 25 246 0.0 0.0 0.00 0.00 0.00 43 1012.4
20260505231330 25 224 0.0 4.8 0.00 0.00 0.00 43 1012.4
20260505230828 25 185 1.6 3.2 0.00 0.00 0.00 43 1012.5
20260505230324 25 240 1.6 4.8 0.00 0.00 0.00 43 1012.5
20260505225821 25 249 3.2 3.2 0.00 0.00 0.00 42 1012.4
20260505225318 25 181 3.2 4.8 0.00 0.00 0.00 43 1012.3
20260505224813 25 212 3.2 6.4 0.00 0.00 0.00 43 1012.5
20260505224312 26 248 0.0 3.2 0.00 0.00 0.00 42 1012.3
20260505223808 26 242 0.0 3.2 0.00 0.00 0.00 42 1012.3
20260505223306 26 218 3.2 4.8 0.00 0.00 0.00 42 1012.3
20260505222801 26 269 0.0 3.2 0.00 0.00 0.00 41 1012.2
20260505222257 26 249 3.2 4.8 0.00 0.00 0.00 41 1012.5
20260505221755 26 259 3.2 4.8 0.00 0.00 0.00 41 1012.3
20260505221251 26 254 3.2 3.2 0.00 0.00 0.00 41 1012.6
20260505220748 26 240 3.2 3.2 0.00 0.00 0.00 41 1012.7
20260505220245 26 258 1.6 4.8 0.00 0.00 0.00 41 1012.6
20260505215743 26 198 1.6 9.7 0.00 0.00 0.00 42 1012.6
20260505215241 26 223 3.2 4.8 0.00 0.00 0.00 41 1012.6
20260505214739 26 203 6.4 6.4 0.00 0.00 0.00 41 1012.5
20260505214236 26 196 1.6 3.2 0.00 0.00 0.00 41 1012.6
20260505213733 26 228 3.2 4.8 0.00 0.00 0.00 39 1012.6
20260505213230 26 231 3.2 3.2 0.00 0.00 0.00 39 1012.5
20260505212726 26 311 3.2 4.8 0.00 0.00 0.00 40 1012.8
20260505212224 26 266 1.6 3.2 0.00 0.00 0.00 41 1012.9
20260505211720 26 252 3.2 4.8 0.00 0.00 0.00 39 1012.9
20260505211218 27 290 1.6 9.7 0.00 0.00 0.00 39 1012.9
20260505210714 27 316 1.6 3.2 0.00 0.00 0.00 39 1012.8
20260505210211 27 1 3.2 4.8 0.00 0.00 0.00 39 1012.9
20260505205708 27 220 1.6 4.8 0.00 0.00 0.00 38 1012.7
20260505205207 27 247 3.2 8.0 0.00 0.00 0.00 37 1012.9
20260505204702 27 212 6.4 8.0 0.00 0.00 0.00 37 1013.2
20260505204201 27 242 6.4 8.0 0.00 0.00 0.00 37 1013.1
20260505203658 27 236 4.8 6.4 0.00 0.00 0.00 38 1012.9
20260505203154 27 169 3.2 6.4 0.00 0.00 0.00 38 1013.2
20260505202650 26 225 3.2 4.8 0.00 0.00 0.00 39 1013.1
20260505202146 26 236 8.0 12.9 0.00 0.00 0.00 38 1013.1
20260505201643 27 235 1.6 4.8 0.00 0.00 0.00 38 1013.1
20260505201141 27 213 3.2 6.4 0.00 0.00 0.00 37 1013.2
20260505200639 27 295 3.2 4.8 0.00 0.00 0.00 39 1013.0
20260505200135 27 265 3.2 4.8 0.00 0.00 0.00 37 1013.2
20260505195632 27 287 3.2 6.4 0.00 0.00 0.00 37 1013.2
20260505195129 27 148 3.2 4.8 0.00 0.00 0.00 37 1013.6
20260505194626 27 126 3.2 4.8 0.00 0.00 0.00 39 1013.6
20260505194122 27 193 4.8 11.3 0.00 0.00 0.00 39 1013.5
20260505193619 27 198 4.8 4.8 0.00 0.00 0.00 40 1013.8
20260505193116 27 200 3.2 4.8 0.00 0.00 0.00 40 1013.6
20260505192615 27 210 4.8 8.0 0.00 0.00 0.00 39 1013.8
20260505192111 27 227 4.8 8.0 0.00 0.00 0.00 40 1013.8
20260505191610 27 235 8.0 11.3 0.00 0.00 0.00 39 1014.0
20260505191107 27 255 4.8 6.4 0.00 0.00 0.00 39 1014.0
20260505190602 28 1 1.6 3.2 0.00 0.00 0.00 39 1014.4
20260505190058 28 210 3.2 4.8 0.00 0.00 0.00 40 1014.3
20260505185555 27 342 3.2 4.8 0.00 0.00 0.00 40 1014.5
20260505185051 27 226 4.8 9.7 0.00 0.00 0.00 40 1014.6
20260505184548 27 205 4.8 4.8 0.00 0.00 0.00 40 1014.6
20260505184045 27 261 1.6 3.2 0.00 0.00 0.00 42 1014.5
20260505183542 27 204 4.8 8.0 0.00 0.00 0.00 41 1014.7
20260505183039 27 283 1.6 4.8 0.00 0.00 0.00 41 1014.7
20260505182535 27 202 3.2 4.8 0.00 0.00 0.00 41 1014.8
20260505182032 27 312 1.6 4.8 0.00 0.00 0.00 41 1014.5
20260505181529 27 192 0.0 4.8 0.00 0.00 0.00 43 1014.7
20260505181026 26 320 0.0 6.4 0.00 0.00 0.00 45 1014.6
20260505180522 26 25 1.6 3.2 0.00 0.00 0.00 44 1014.5
20260505180020 26 248 3.2 8.0 0.00 0.00 0.00 43 1014.5
20260505175514 27 260 0.0 4.8 0.00 0.00 0.00 43 1014.6
20260505175012 26 347 1.6 4.8 0.00 0.00 0.00 43 1014.8
20260505174509 26 231 8.0 8.0 0.00 0.00 0.00 44 1014.4
20260505174005 26 219 4.8 8.0 0.00 0.00 0.00 44 1014.7
20260505173501 26 219 3.2 4.8 0.00 0.00 0.00 44 1014.9
20260505172958 25 159 0.0 8.0 0.00 0.00 0.00 45 1014.9
20260505172457 25 51 1.6 3.2 0.00 0.00 0.00 49 1014.8
20260505171957 25 210 3.2 4.8 0.00 0.00 0.00 49 1015.0
20260505171453 25 320 3.2 3.2 0.00 0.00 0.00 48 1015.1
20260505170950 26 204 4.8 8.0 0.00 0.00 0.00 46 1015.2
20260505170447 25 228 0.0 4.8 0.00 0.00 0.00 48 1015.2
20260505165942 25 37 3.2 6.4 0.00 0.00 0.00 47 1015.2
20260505165438 25 321 3.2 4.8 0.00 0.00 0.00 48 1015.4
20260505164934 26 23 4.8 4.8 0.00 0.00 0.00 46 1015.3
20260505164431 26 311 0.0 4.8 0.00 0.00 0.00 46 1015.4
20260505163928 26 22 0.0 3.2 0.00 0.00 0.00 47 1015.5
20260505163427 25 246 3.2 8.0 0.00 0.00 0.00 47 1015.4
20260505162926 25 176 3.2 9.7 0.00 0.00 0.00 47 1015.8
20260505162421 25 21 4.8 4.8 0.00 0.00 0.00 48 1015.8
20260505161918 25 249 3.2 6.4 0.00 0.00 0.00 50 1016.1
20260505161415 25 197 3.2 8.0 0.00 0.00 0.00 49 1016.0
20260505160912 25 341 0.0 4.8 0.00 0.00 0.00 49 1016.0
20260505160410 25 327 3.2 8.0 0.00 0.00 0.00 49 1016.1
20260505153349 25 354 0.0 6.4 0.00 0.00 0.00 53 1016.1
20260505152846 25 172 3.2 3.2 0.00 0.00 0.00 54 1016.3
20260505152343 24 210 0.0 3.2 0.00 0.00 0.00 54 1016.0
20260505151837 23 260 1.6 4.8 0.00 0.00 0.00 55 1016.1
20260505151334 23 11 3.2 6.4 0.00 0.00 0.00 56 1015.8
20260505150831 23 321 1.6 4.8 0.00 0.00 0.00 56 1016.2
20260505150329 23 200 3.2 4.8 0.00 0.00 0.00 56 1016.1
20260505140252 21 221 0.0 3.2 0.00 0.00 0.00 65 1016.1